Flag for Poland Weather past 2 weeks in Częstochowa, Poland

Now
46 °F

Passing clouds.


Feels Like: 42 °F
Forecast: 38 / 58 °F
Wind: 9 mph from West

Location: Katowice Airport

Current Time: Sep 23, 2014 at 3:05:39 AM

Latest Report: Sep 23, 2014 at 2:30 AM


Visibility: N/A

Pressure: 29.83 "Hg

Humidity: 87%

Dew point: 43 °F

Location of CzęstochowaLocation

Historic Weather in Częstochowa — Graph

°F

Częstochowa temperature yesterday

Maximum temperature yesterday: 59 °F (at 12:00 AM)
Minimum temperature yesterday: 46 °F (at 10:30 PM)
Average temperature yesterday: 53 °F

Past Weeks' High & Low Weather Summary

 TemperatureHumidityPressure
High79 °F (Sep 8, 3:00 PM)100% (Sep 8, 2:00 AM)30.27 "Hg (Sep 8, 2:00 AM)
Low45 °F (Sep 23, 12:30 AM)38% (Sep 19, 1:00 PM)29.71 "Hg (Sep 22, 3:30 AM)
Average61 °F81%30.01 "Hg
* Reported Sep 8 2:00 AM — Sep 23 2:00 AM, Częstochowa, Weather by CustomWeather, © 2014

Note: Actual official high and low records may vary slightly from our data, if they occured in-between our weather recording intervals... More about our weather records

Advertising

Częstochowa weather history for previous 24 hours

 ConditionsComfort  
Time TempWeatherWind HumidityBarometerVisibility
2:00 AM
Sep 23
45 °FPassing clouds.8 mph93%29.83 "HgN/A
1:30 AM45 °FPassing clouds.9 mph93%29.83 "HgN/A
1:00 AM46 °FPassing clouds.9 mph87%29.83 "HgN/A
12:30 AM45 °FPassing clouds.8 mph93%29.83 "HgN/A
12:00 AM46 °FPassing clouds.10 mph87%29.83 "HgN/A
11:30 PM
Sep 22
46 °FPassing clouds.10 mph87%29.83 "HgN/A
11:00 PM46 °FClear.10 mph93%29.83 "Hg10 mi
10:30 PM46 °FClear.13 mph93%29.83 "Hg10 mi
10:00 PM48 °FClear.10 mph87%29.80 "Hg10 mi
9:30 PM48 °FPassing clouds.8 mph87%29.80 "HgN/A
9:00 PM50 °FClear.13 mph82%29.80 "Hg10 mi
8:30 PM50 °FPassing clouds.9 mph82%29.80 "HgN/A
8:00 PM50 °FPassing clouds.7 mph82%29.80 "HgN/A
7:30 PM50 °FPassing clouds.8 mph82%29.80 "HgN/A
7:00 PM52 °FSunny.8 mph77%29.80 "Hg10 mi
6:30 PM54 °FPassing clouds.12 mph72%29.77 "HgN/A
6:00 PM55 °FPassing clouds.10 mph72%29.77 "HgN/A
5:30 PM55 °FPassing clouds.12 mph72%29.77 "HgN/A
5:00 PM54 °FPassing clouds.13 mph77%29.77 "HgN/A
4:30 PM55 °FPassing clouds.12 mph82%29.77 "HgN/A
4:00 PM54 °FPassing clouds.15 mph82%29.77 "HgN/A
3:30 PM55 °FPassing clouds.13 mph77%29.77 "HgN/A
3:00 PM52 °FPartly sunny.13 mph94%29.77 "HgN/A
2:30 PM52 °FSprinkles. Broken clouds.12 mph94%29.77 "Hg5 mi
2:00 PM54 °FSprinkles. Scattered clouds.12 mph88%29.77 "HgN/A
1:30 PM54 °FBroken clouds.12 mph82%29.77 "HgN/A
1:00 PM54 °FSprinkles. Partly sunny.14 mph88%29.77 "HgN/A
12:30 PM55 °FSprinkles. Broken clouds.16 mph77%29.77 "HgN/A
12:00 PM54 °FPartly sunny.15 mph82%29.77 "HgN/A
11:30 AM54 °FBroken clouds.15 mph82%29.77 "HgN/A
11:00 AM54 °FBroken clouds.17 mph82%29.80 "HgN/A
10:30 AM54 °FBroken clouds.20 mph82%29.77 "HgN/A
10:00 AM54 °FPartly sunny.18 mph88%29.77 "Hg5 mi
9:30 AM54 °FSprinkles. Broken clouds.15 mph94%29.77 "Hg5 mi
9:00 AM54 °FBroken clouds.15 mph94%29.77 "Hg5 mi
8:30 AM52 °FLight rain. Broken clouds.10 mph100%29.77 "Hg5 mi
8:00 AM52 °FLight rain. Broken clouds.10 mph100%29.77 "Hg5 mi
7:30 AM52 °FLight rain. Broken clouds.12 mph94%29.77 "Hg5 mi
7:00 AM52 °FLight rain. Partly cloudy.9 mph94%29.74 "Hg5 mi
6:30 AM52 °FSprinkles. Passing clouds.9 mph94%29.74 "Hg4 mi
6:00 AM52 °FSprinkles. Partly cloudy.13 mph94%29.74 "Hg4 mi
5:30 AM52 °FSprinkles. Partly cloudy.22 mph94%29.74 "Hg5 mi
5:00 AM55 °FLight rain. Fog.7 mph100%29.71 "Hg2 mi
4:30 AM57 °FRain. Fog.8 mph94%29.71 "Hg3 mi
4:00 AM57 °FLight rain. Fog.9 mph94%29.71 "Hg3 mi
3:30 AM57 °FSprinkles. Fog.10 mph100%29.71 "Hg2 mi
3:00 AM59 °FRain showers. Fog.7 mph100%29.74 "Hg1 mi
Weather by CustomWeather, © 2014

See weather overviewHow to use our weather pages